Weather History for Chamberlain, SD

Change the Weather History Date:

Friday, October 11, 2013

  Actual Average Record
Temperature  
Mean Temperature 60 °F -  
Max Temperature 70 °F 62 °F 84 °F (1997)
Min Temperature 50 °F 37 °F 28 °F (2006)
Degree Days  
Heating Degree Days 5    
Growing Degree Days 10 (Base 50)    
Moisture  
Dew Point 46 °F    
Average Humidity 60    
Maximum Humidity 70    
Minimum Humidity 42    
Precipitation  
Precipitation 0.00 in - - ()
Sea Level Pressure  
Sea Level Pressure 29.51 in    
Wind  
Wind Speed 23 mph (SW)    
Max Wind Speed 39 mph    
Max Gust Speed 54 mph    
Averages and records for this station are not official NWS values.
T = Trace of Precipitation, MM = Missing Value Source: NWS Daily Summary

Daily Weather History Graph

Daily Weather History Graph

Search for Another Location

Airport:

Trip Planner

Search our weather history database for the weather conditions in past years. The results will help you decide how hot, cold, wet, or windy it might be!

Date:

Astronomy

Oct. 11, 2013 Rise Set
Actual Time 7:47 AM CDT 7:00 PM CDT
Civil Twilight 7:18 AM CDT 7:28 PM CDT
Nautical Twilight 6:44 AM CDT 8:02 PM CDT
Astronomical Twilight 6:11 AM CDT 8:35 PM CDT
Moon 2:36 PM CDT (10/11) No Moon Set
Length of Visible Light 12h 10m
Length of Day
11h 12m
Waxing Crescent, 47% of the Moon is Illuminated
Oct 11
Waxing Crescent
Oct 11
First Quarter
Oct 18
Full
Oct 26
Last Quarter
Nov 3
New

Hourly Weather History & Observations

Time (CDT) Temp. Dew Point Humidity Pressure Visibility Wind Dir Wind Speed Gust Speed Precip Events Conditions
12:52 AM 70.0 °F 57.0 °F 63% 29.53 in - South 23.0 mph 34.5 mph N/A   Unknown
1:52 AM 69.1 °F 57.0 °F 65% 29.53 in - South 23.0 mph 29.9 mph N/A   Unknown
2:52 AM 66.9 °F 52.0 °F 59% 29.52 in - South 13.8 mph - N/A   Unknown
3:52 AM 64.9 °F 52.0 °F 63% 29.42 in - SE 16.1 mph - N/A   Unknown
4:52 AM 64.9 °F 52.0 °F 63% 29.39 in - SE 23.0 mph 31.1 mph N/A   Unknown
5:52 AM 64.9 °F 51.1 °F 61% 29.41 in - South 25.3 mph 34.5 mph N/A   Unknown
6:52 AM 63.0 °F 51.1 °F 65% 29.38 in - SSE 20.7 mph 33.4 mph N/A   Unknown
7:52 AM 61.0 °F 51.1 °F 70% 29.37 in - SSE 21.9 mph 32.2 mph N/A   Unknown
8:52 AM 63.0 °F 50.0 °F 63% 29.35 in - SSE 25.3 mph 36.8 mph N/A   Unknown
9:52 AM 62.1 °F 46.9 °F 58% 29.31 in - South 39.1 mph 54.1 mph N/A   Unknown
10:52 AM 62.1 °F 44.1 °F 52% 29.31 in - SSW 31.1 mph 52.9 mph N/A   Unknown
11:52 AM 66.0 °F 44.1 °F 45% 29.30 in - SSW 36.8 mph 47.2 mph N/A   Unknown
12:52 PM 68.0 °F 44.1 °F 42% 29.34 in - SW 26.5 mph 38.0 mph N/A   Unknown
1:52 PM 66.9 °F 45.0 °F 45% 29.38 in - WSW 24.2 mph 40.3 mph N/A   Unknown
2:52 PM 63.0 °F 46.9 °F 56% 29.43 in - West 27.6 mph 43.7 mph N/A   Unknown
3:52 PM 55.9 °F 45.0 °F 67% 29.52 in - West 25.3 mph 44.9 mph N/A   Unknown
4:52 PM 53.1 °F 42.1 °F 66% 29.60 in - WNW 35.7 mph 44.9 mph N/A   Unknown
5:52 PM 52.0 °F 39.9 °F 63% 29.66 in - WNW 21.9 mph 33.4 mph N/A   Unknown
6:52 PM 52.0 °F 41.0 °F 66% 29.70 in - WNW 20.7 mph 31.1 mph N/A   Unknown
7:52 PM 52.0 °F 39.9 °F 63% 29.73 in - West 19.6 mph 25.3 mph N/A   Unknown
8:52 PM 52.0 °F 37.9 °F 59% 29.74 in - WNW 21.9 mph 35.7 mph N/A   Unknown
9:52 PM 51.1 °F 37.9 °F 61% 29.78 in - WNW 18.4 mph - N/A   Unknown
10:52 PM 50.0 °F 39.0 °F 66% 29.81 in - West 16.1 mph - N/A   Unknown
11:52 PM 50.0 °F 37.9 °F 63% 29.84 in - WNW 21.9 mph 33.4 mph N/A   Unknown